Flag for Italy Weather past 2 weeks in Naples, Italy

Now
48 °F

Passing clouds.


Feels Like: 43 °F
Forecast: 45 / 52 °F
Wind: 12 mph from West

Location: Naples / Capodichino

Current Time: Jan 31, 2015 at 12:51:36 AM

Latest Report: Jan 30, 2015 at 11:50 PM


Visibility: N/A

Pressure: 29.21 "Hg

Humidity: 62%

Dew point: 36 °F

Location of NaplesLocation

Historic Weather in Naples — Graph

°F

Naples temperature yesterday

Maximum temperature yesterday: 57 °F (at 12:20 PM)
Minimum temperature yesterday: 45 °F (at 8:20 PM)
Average temperature yesterday: 52 °F

Past Weeks' High & Low Weather Summary

 TemperatureHumidityPressure
High64 °F (Jan 17, 12:20 PM)100% (Jan 16, 12:50 AM)30.21 "Hg (Jan 16, 12:50 AM)
Low34 °F (Jan 29, 4:20 AM)41% (Jan 27, 11:50 AM)29.03 "Hg (Jan 30, 3:20 PM)
Average50 °F77%29.81 "Hg
* Reported Jan 15 11:20 PM — Jan 30 11:50 PM, Naples, Weather by CustomWeather, © 2014

Note: Actual official high and low records may vary slightly from our data, if they occured in-between our weather recording intervals... More about our weather records

Advertising

Naples weather history for previous 24 hours

 ConditionsComfort  
Time TempWeatherWind HumidityBarometerVisibility
11:50 PM
Jan 30
48 °FPassing clouds.12 mph62%29.21 "HgN/A
10:50 PM46 °FPassing clouds.3 mph62%29.21 "HgN/A
10:20 PM46 °FPassing clouds.2 mph62%29.21 "HgN/A
9:50 PM50 °FPassing clouds.20 mph58%29.18 "HgN/A
9:20 PM50 °FThunderstorms. Passing clouds.17 mph62%29.18 "Hg5 mi
8:50 PM46 °FThunderstorms. Passing clouds.5 mph76%29.18 "Hg5 mi
8:20 PM45 °FHeavy rain. Passing clouds.22 mph71%29.15 "Hg5 mi
7:50 PM48 °FPassing clouds.21 mph66%29.15 "HgN/A
7:20 PM46 °FPassing clouds.18 mph71%29.15 "HgN/A
6:50 PM48 °FPassing clouds.18 mph62%29.15 "HgN/A
6:20 PM50 °FPassing clouds.23 mph62%29.12 "HgN/A
5:50 PM52 °FPassing clouds.26 mph54%29.09 "HgN/A
5:20 PM52 °FPassing clouds.26 mph50%29.06 "HgN/A
4:50 PM54 °FPartly sunny.21 mph58%29.06 "HgN/A
4:20 PM54 °FPartly sunny.14 mph67%29.06 "HgN/A
3:50 PM52 °FPartly sunny.12 mph72%29.06 "HgN/A
3:20 PM50 °FLight rain. Partly sunny.5 mph88%29.03 "HgN/A
2:50 PM50 °FLight rain. Partly sunny.21 mph82%29.09 "Hg4 mi
2:20 PM50 °FLight rain. Partly sunny.17 mph88%29.09 "Hg4 mi
1:50 PM52 °FLight rain. Partly sunny.24 mph82%29.06 "Hg4 mi
1:20 PM54 °FLight rain. Partly sunny.22 mph82%29.06 "Hg3 mi
12:50 PM57 °FPartly sunny.15 mph82%29.06 "HgN/A
12:20 PM57 °FPartly sunny.10 mph77%29.09 "HgN/A
11:50 AM55 °FPartly sunny.10 mph88%29.09 "HgN/A
11:20 AM55 °FPartly sunny.13 mph82%29.12 "HgN/A
10:50 AM54 °FPartly sunny.15 mph88%29.12 "Hg5 mi
10:20 AM54 °FLight rain. Partly sunny.9 mph82%29.15 "Hg4 mi
9:50 AM54 °FLight rain. Partly sunny.15 mph88%29.12 "Hg4 mi
9:20 AM54 °FThunderstorms. Partly sunny.14 mph88%29.15 "Hg3 mi
8:50 AM50 °FThunderstorms. Partly sunny.18 mph88%29.18 "Hg2 mi
8:20 AM54 °FRain. Broken clouds.12 mph94%29.15 "Hg2 mi
7:50 AM55 °FRain. Broken clouds.22 mph88%29.18 "Hg2 mi
7:20 AM55 °FRain. Broken clouds.21 mph88%29.18 "Hg2 mi
6:50 AM55 °FRain. Partly cloudy.15 mph88%29.18 "Hg2 mi
6:20 AM55 °FLight rain. Partly cloudy.15 mph82%29.21 "Hg5 mi
5:50 AM54 °FRain. Partly cloudy.17 mph94%29.24 "Hg3 mi
5:20 AM54 °FHeavy rain. Partly cloudy.20 mph94%29.24 "Hg2 mi
4:50 AM54 °FRain. Partly cloudy.18 mph82%29.27 "Hg5 mi
3:50 AM54 °FCool.N/A82%29.30 "HgN/A
3:20 AM52 °FRain. Passing clouds.21 mph94%29.33 "Hg4 mi
2:50 AM55 °FRain. Passing clouds.18 mph77%29.33 "HgN/A
2:20 AM54 °FLight rain. Passing clouds.12 mph88%29.36 "HgN/A
1:50 AM55 °FLight rain. Passing clouds.15 mph82%29.39 "HgN/A
1:20 AM55 °FRain. Passing clouds.16 mph82%29.39 "Hg4 mi
12:50 AM55 °FLight rain. Partly cloudy.12 mph82%29.42 "Hg5 mi
12:20 AM54 °FRain. Partly cloudy.8 mph82%29.45 "Hg5 mi
Weather by CustomWeather, © 2014

See weather overviewHow to use our weather pages